Weather History for West Palm Beach, FL

Change the Weather History Date:

Sunday, November 25, 2012

  Actual Average Record
Temperature  
Mean Temperature 65 °F 71 °F  
Max Temperature 78 °F 79 °F 88 °F (1947)
Min Temperature 52 °F 64 °F 36 °F (1917)
Degree Days  
Heating Degree Days 0 1  
Month to date heating degree days 7 4  
Since 1 July heating degree days 12 5  
Cooling Degree Days 0 7  
Month to date cooling degree days 135 211  
Year to date cooling degree days 3986 3832  
Growing Degree Days 15 (Base 50)    
Moisture  
Dew Point 55 °F    
Average Humidity 71    
Maximum Humidity 96    
Minimum Humidity 46    
Precipitation  
Precipitation 0.00 in 0.13 in 5.16 in (2000)
Month to date precipitation 0.58 4.09  
Year to date precipitation 77.43 58.29  
Snow  
Snow 0.00 in - - ()
Month to date snowfall 0.0  
Since 1 July snowfall 0.0  
Since 1 September snowfall 0.0  
Snow Depth 0.00 in    
Sea Level Pressure  
Sea Level Pressure 30.08 in    
Wind  
Wind Speed 4 mph (NW)    
Max Wind Speed 9 mph    
Max Gust Speed 41 mph    
Visibility 10 miles    
Events      
T = Trace of Precipitation, MM = Missing Value Source: NWS Daily Summary

Daily Weather History Graph

Daily Weather History Graph

Search for Another Location

Airport:

Trip Planner

Search our weather history database for the weather conditions in past years. The results will help you decide how hot, cold, wet, or windy it might be!

Date:

Astronomy

Nov. 25, 2012 Rise Set
Actual Time 6:47 AM EST 5:27 PM EST
Civil Twilight 6:22 AM EST 5:52 PM EST
Nautical Twilight 5:54 AM EST 6:20 PM EST
Astronomical Twilight 5:26 AM EST 6:48 PM EST
Moon 3:34 PM EST (11/25) 4:10 AM EST (11/25)
Length of Visible Light 11h 29m
Length of Day
10h 39m
Waxing Gibbous, 93% of the Moon is Illuminated
Nov 25
Waxing Gibbous
Nov 28
Full
Dec 6
Last Quarter
Dec 13
New
Dec 20
First Quarter

Hourly Weather History & Observations

Time (EST) Temp. Dew Point Humidity Pressure Visibility Wind Dir Wind Speed Gust Speed Precip Events Conditions
12:53 AM 59.0 °F 53.1 °F 81% 30.05 in 10.0 mi West 4.6 mph - N/A   Clear
1:53 AM 57.9 °F 54.0 °F 87% 30.05 in 10.0 mi West 4.6 mph - N/A   Clear
2:53 AM 57.0 °F 54.0 °F 89% 30.05 in 10.0 mi West 4.6 mph - N/A   Clear
3:53 AM 55.9 °F 54.0 °F 93% 30.05 in 10.0 mi West 3.5 mph - N/A   Clear
4:53 AM 54.0 °F 52.0 °F 93% 30.05 in 10.0 mi WNW 4.6 mph - N/A   Clear
5:53 AM 54.0 °F 52.0 °F 93% 30.06 in 10.0 mi Calm Calm - N/A   Clear
6:53 AM 52.0 °F 50.0 °F 93% 30.07 in 10.0 mi WNW 4.6 mph - N/A   Partly Cloudy
7:53 AM 55.9 °F 52.0 °F 87% 30.09 in 10.0 mi WNW 3.5 mph - N/A   Partly Cloudy
8:53 AM 61.0 °F 54.0 °F 78% 30.11 in 10.0 mi NW 4.6 mph - N/A   Partly Cloudy
9:53 AM 66.9 °F 57.0 °F 70% 30.12 in 10.0 mi NW 5.8 mph - N/A   Partly Cloudy
10:53 AM 71.1 °F 57.9 °F 63% 30.12 in 10.0 mi WNW 5.8 mph - N/A   Partly Cloudy
11:53 AM 73.0 °F 55.0 °F 53% 30.11 in 10.0 mi Variable 4.6 mph - N/A   Scattered Clouds
12:53 PM 75.9 °F 54.0 °F 46% 30.08 in 10.0 mi North 4.6 mph - N/A   Scattered Clouds
1:53 PM 75.9 °F 54.0 °F 46% 30.06 in 10.0 mi SSW 3.5 mph - N/A   Scattered Clouds
2:53 PM 75.9 °F 55.9 °F 50% 30.06 in 10.0 mi East 5.8 mph - N/A   Scattered Clouds
3:53 PM 75.0 °F 55.9 °F 51% 30.06 in 10.0 mi East 8.1 mph - N/A   Partly Cloudy
4:53 PM 73.0 °F 57.9 °F 59% 30.07 in 10.0 mi East 5.8 mph - N/A   Partly Cloudy
5:53 PM 72.0 °F 57.9 °F 61% 30.07 in 10.0 mi ENE 4.6 mph - N/A   Partly Cloudy
6:53 PM 71.1 °F 60.1 °F 68% 30.09 in 10.0 mi NE 3.5 mph - N/A   Partly Cloudy
7:53 PM 64.0 °F 57.9 °F 80% 30.11 in 10.0 mi West 5.8 mph - N/A   Partly Cloudy
8:53 PM 66.0 °F 60.1 °F 81% 30.13 in 10.0 mi West 3.5 mph - N/A   Mostly Cloudy
9:53 PM 64.0 °F 59.0 °F 84% 30.13 in 10.0 mi NW 3.5 mph - N/A   Scattered Clouds
10:53 PM 62.1 °F 59.0 °F 90% 30.13 in 10.0 mi Calm Calm - N/A   Scattered Clouds
11:53 PM 61.0 °F 57.9 °F 90% 30.12 in 10.0 mi Calm Calm - N/A   Scattered Clouds